Volver al catálogo

THORAD AGENA D DEB

LostSSO
NORAD 42539·DEBRIS·🇺🇸 United States

Lanzado Apr 8, 1970 desde Vandenberg Space Force Base

Loading…

Próximos Pases (próximas 24 horas)

TLE

ObsoletoSource: Space-Track

Época: Sep 30, 2022, 21:50 UTC

1 42539U 70025SV  22273.91029547  .00002090  00000-0  12486-2 0  9994
2 42539  99.0639 330.7522 0075279 150.9971 209.5411 14.06881163495597

Sigue THORAD AGENA D DEB en tiempo real con AllMySat

Download on the App Store